Volver al catálogo

GONETS D1 2

ActivoComunicacionesPO
NORAD 23788·PAYLOAD·🇷🇺 Russia

Lanzado Feb 19, 1996 desde Plesetsk Cosmodrome

Loading…

Próximos Pases (próximas 24 horas)

TLE

ActualizadoSource: Space-Track

Época: Sep 14, 2026, 08:40 UTC

1 23788U 96009B   26257.36160393 -.00000005  00000-0 -86586-4 0  9999
2 23788  82.5653 247.4255 0006069 219.4075 140.6576 12.63218382409353

Sigue GONETS D1 2 en tiempo real con AllMySat

Download on the App Store